Orbital Elements at Epoch 2459000.5 (2020-May-31.0) TDB
Reference: JPL 18 (heliocentric ecliptic J2000)
Element | Value | Uncertainty (1-sigma) | Units |
e | .09125521904619702 | 4.5316e-08 | |
a | 2.63757951577126 | 2.0338e-08 | au |
q | 2.396886619307792 | 1.2089e-07 | au |
i | 15.3121832712111 | 5.5423e-06 | deg |
node | 25.3161327724453 | 1.7712e-05 | deg |
peri | 284.9257442347564 | 3.3911e-05 | deg |
M | 226.020180510083 | 3.1663e-05 | deg |
tp | 2459582.795798311033 (2022-Jan-03.29579831) | 0.00014018 | TDB |
period | 1564.612403495198 4.28 | 1.8097e-05 4.955e-08 | d yr |
n | .2300889339722691 | 2.6613e-09 | deg/d |
Q | 2.878272412234729 | 2.2194e-08 | au |
|
| | Orbit Determination Parameters
Additional Information
|